N4WIB Weather Reports


Display with metric or nautical units.
time (UTC)temp
F
wind
direction
speed
MPH
gust
MPH
rain 1hr
in
rain 24hr
in
rain mn
in
humidity
%
barometer
mb
20260503211514 65 252 0.0 5.0 0.00 0.00 0.00 30 1017.3
20260503210012 65 219 0.0 8.0 0.00 0.00 0.00 29 1017.5
20260503204512 65 188 0.0 1.0 0.00 0.00 0.00 31 1017.6
20260503203012 65 249 0.0 5.0 0.00 0.00 0.00 28 1017.8
20260503201510 65 192 0.0 4.0 0.00 0.00 0.00 33 1018.2
20260503200012 63 240 0.0 5.0 0.00 0.00 0.00 30 1018.5
20260503194509 64 220 0.0 0.0 0.00 0.00 0.00 31 1018.7
20260503193010 63 244 0.0 5.0 0.00 0.00 0.00 32 1018.9
20260503191516 63 271 0.0 5.0 0.00 0.00 0.00 29 1019.1
20260503190008 63 194 0.0 1.0 0.00 0.00 0.00 28 1019.2
20260503184508 63 167 0.0 1.0 0.00 0.00 0.00 30 1019.3
20260503183007 64 229 0.0 5.0 0.00 0.00 0.00 27 1019.5
20260503181505 63 273 0.0 5.0 0.00 0.00 0.00 29 1019.8
20260503180005 62 204 0.0 3.0 0.00 0.00 0.00 34 1019.9
20260503174503 61 238 0.0 1.0 0.00 0.00 0.00 33 1020.2
20260503173002 64 235 0.0 0.0 0.00 0.00 0.00 35 1020.2
20260503171600 60 267 0.0 2.0 0.00 0.00 0.00 38 1020.6
20260503130113 48 168 0.0 0.0 0.00 0.00 0.00 63 1021.5
20260503081533 46 100 0.0 0.0 0.00 0.00 0.00 63 1018.9
20260503071508 47 100 0.0 0.0 0.00 0.00 0.00 60 1018.2
20260503054554 51 102 0.0 0.0 0.00 0.00 0.00 53 1017.9
20260503053053 51 102 0.0 0.0 0.00 0.00 0.00 55 1017.9
20260503051556 51 102 0.0 0.0 0.00 0.00 0.00 53 1017.8
20260503050051 51 102 0.0 0.0 0.00 0.00 0.00 53 1017.7
20260503044557 51 102 0.0 0.0 0.00 0.00 0.00 52 1017.8
20260503043054 52 102 0.0 0.0 0.00 0.00 0.00 51 1017.7
20260503041544 52 102 0.0 0.0 0.00 0.00 0.00 50 1017.4
20260503040043 53 125 0.0 0.0 0.00 0.00 0.00 49 1017.4
20260503034541 53 143 0.0 0.0 0.00 0.00 0.00 48 1017.3
20260503033041 54 40 1.0 7.0 0.00 0.00 0.00 48 1017.4
20260503031541 54 117 0.0 0.0 0.00 0.00 0.00 48 1017.2
20260503030054 54 148 0.0 0.0 0.00 0.00 0.00 48 1017.1
20260503024540 54 266 0.0 0.0 0.00 0.00 0.00 47 1016.9
20260503023036 54 167 0.0 0.0 0.00 0.00 0.00 48 1016.9
20260503021538 54 167 0.0 0.0 0.00 0.00 0.00 46 1016.7
20260503020032 54 167 0.0 0.0 0.00 0.00 0.00 45 1016.5
20260503014530 54 238 0.0 2.0 0.00 0.00 0.00 47 1016.3
20260503013028 54 243 0.0 0.0 0.00 0.00 0.00 47 1016.1
20260503011526 53 242 0.0 0.0 0.00 0.00 0.00 48 1015.9
20260503010025 53 243 0.0 0.0 0.00 0.00 0.00 46 1015.6
20260503004523 55 244 0.0 0.0 0.00 0.00 0.00 44 1015.5
20260503003024 56 245 0.0 0.0 0.00 0.00 0.00 42 1015.3
20260503001523 57 245 0.0 1.0 0.00 0.00 0.00 39 1014.9
20260503000030 58 62 0.0 3.0 0.00 0.00 0.00 36 1014.8
20260502234522 58 133 0.0 1.0 0.00 0.00 0.00 36 1014.5
20260502233021 59 51 0.0 3.0 0.00 0.00 0.00 34 1014.4
20260502231521 60 198 0.0 2.0 0.00 0.00 0.00 35 1014.4
20260502230021 61 251 0.0 4.0 0.00 0.00 0.00 33 1014.3
20260502224520 60 269 0.0 8.0 0.00 0.00 0.00 32 1014.3
20260502223020 62 111 0.0 5.0 0.00 0.00 0.00 31 1014.3
20260502221519 62 129 0.0 5.0 0.00 0.00 0.00 30 1014.1
20260502220022 62 100 0.0 2.0 0.00 0.00 0.00 30 1014.0
20260502214518 62 266 0.0 0.0 0.00 0.00 0.00 32 1013.8
20260502213035 61 152 0.0 0.0 0.00 0.00 0.00 32 1013.8